Tracking 31027 objects as of 18-Jul-2025
HD Live streaming from Space Station
objects crossing your sky now

PSLV R/B

Track PSLV R/B now!
10-day predictions


NORAD ID: 37390
Int'l Code: 2011-015D
Perigee: 791.9 km
Apogee: 818.0 km
Inclination: 98.5 °
Period: 100.8 minutes
Semi major axis: 7175 km
RCS: 5.8459 m2 (large)
Launch date: April 20, 2011
Source: India (IND)
Launch site: SRIHARIKOTA (SRI)

Note: This is a ROCKET BODY
Your satellite tracking list
Your tracking list is empty




NASA's NSSDC Master Catalog

Two Line Element Set (TLE):
1 37390U 11015D   25199.50622852  .00000084  00000-0  50700-4 0  9994
2 37390  98.4604 153.6619 0018228 171.6342 299.7179 14.28178267742194
Source of the keplerian elements: AFSPC